1493730000.39,13010,14.31,73870.8,4.05,3.25,3.33,0,*78
1493730001.62,13011,14.31,73874.3,4.05,3.71,3.63,0,*7D
1493730002.8,13012,14.25,73872.0,4.07,3.81,3.81,0,*7F
1493730004.01,13013,14.31,73874.0,4.07,3.71,3.59,0,*74
1493730005.24,13014,14.31,73876.0,4.05,3.97,3.93,0,*7F
1493730006.42,13015,14.31,73878.0,4.07,3.81,3.85,0,*7C
1493730007.65,13016,14.31,73876.8,4.07,3.75,3.71,0,*7F
1493730008.88,13017,14.31,73874.3,4.07,3.97,3.97,0,*7A
1493730010.11,13018,14.31,73878.8,4.05,3.97,3.93,0,*73
1493730011.31,13019,14.31,73878.5,4.07,3.59,3.49,0,*75
1493730012.54,13020,14.31,73876.5,4.07,3.41,3.53,0,*7D
1493730013.71,13021,14.31,73878.8,4.07,3.59,3.63,0,*76
1493730014.92,13022,14.31,73874.8,4.07,3.97,3.93,0,*78
1493730016.1,13023,14.31,73878.5,4.07,4.19,4.23,0,*74
1493730017.3,13024,14.31,73876.0,4.07,3.93,3.97,0,*7E
1493730018.51,13025,14.31,73872.8,4.07,3.93,3.97,0,*7F
1493730019.71,13026,14.31,73874.3,4.07,3.93,3.97,0,*7C
1493730020.9,13027,14.31,73878.0,4.07,3.93,3.93,0,*79
1493730022.08,13028,14.31,73878.3,4.07,3.85,3.93,0,*71
1493730023.26,13029,14.31,73876.0,4.07,3.85,3.93,0,*70
1493730024.47,13030,14.31,73880.3,4.05,3.93,3.93,0,*7D
1493730025.67,13031,14.31,73878.0,4.07,4.05,4.11,0,*7B
1493730026.93,13032,14.31,73876.3,4.09,3.97,3.97,0,*73
1493730028.13,13033,14.31,73878.8,4.09,4.15,4.23,0,*77
1493730029.32,13034,14.31,73880.3,4.11,4.11,4.07,0,*7B
1493730030.52,13035,14.31,73872.5,4.09,4.15,4.23,0,*71
1493730031.73,13036,14.31,73872.5,4.09,4.23,4.23,0,*77
1493730032.99,13037,14.31,73872.8,4.09,3.75,3.79,0,*7A
1493730034.19,13038,14.31,73874.8,4.09,3.63,3.55,0,*7C
1493730035.41,13039,14.31,73878.0,4.09,3.63,3.67,0,*7C
1493730036.64,13040,14.31,73878.8,4.07,3.33,3.37,0,*7C
1493730037.91,13041,14.31,73870.3,4.05,3.41,3.41,0,*7B
1493730039.14,13042,14.31,73874.3,4.07,3.75,3.75,0,*7A
1493730040.37,13043,14.31,73872.0,4.05,3.81,3.71,0,*76
1493730041.55,13044,14.31,73872.8,4.07,3.63,3.63,0,*7C
1493730042.73,13045,14.31,73872.0,4.07,3.85,3.93,0,*7A
1493730043.97,13046,14.31,73868.8,4.07,3.75,3.75,0,*7E
1493730045.17,13047,14.31,73870.0,4.05,3.85,3.93,0,*7A
1493730046.4,13048,14.31,73868.5,4.07,3.97,3.97,0,*70
1493730047.66,13049,14.31,73870.8,4.05,3.41,3.41,0,*73
1493730048.92,13050,14.31,73872.0,4.05,3.37,3.41,0,*7A
1493730050.19,13051,14.31,73874.3,4.05,3.41,3.41,0,*7A
1493730051.43,13052,14.31,73872.0,4.05,2.91,2.81,0,*78
1493730052.66,13053,14.31,73870.3,4.03,2.55,2.51,0,*7A
1493730053.92,13054,14.31,73874.3,4.01,2.13,2.13,0,*7B
1493730055.17,13055,14.31,73874.5,4.01,2.09,2.01,0,*72
1493730056.42,13056,14.31,73878.3,3.97,2.55,2.47,0,*72
1493730057.68,13057,14.31,73878.8,3.97,2.39,2.39,0,*70
1493730058.94,13058,14.31,73876.8,3.97,2.43,2.43,0,*7F
1493730060.15,13059,14.31,73882.0,3.93,1.89,1.89,0,*7A
1493730061.37,13060,14.31,73880.0,3.93,1.93,1.93,0,*70
1493730062.6,13061,14.31,73876.5,3.89,2.59,2.59,0,*7A
1493730063.84,13062,14.31,73876.3,3.89,2.51,2.51,0,*79
1493730065.09,13063,14.31,73878.5,3.87,2.59,2.59,0,*76
1493730066.26,13064,14.31,73876.0,3.85,2.99,2.99,0,*73
1493730067.49,13065,14.31,73874.5,3.87,2.95,3.03,0,*7E
1493730068.72,13066,14.31,73872.5,3.85,2.81,2.89,0,*79
1493730069.9,13067,14.31,73870.8,3.85,2.91,2.99,0,*78
1493730071.08,13068,14.31,73872.3,3.85,2.65,2.65,0,*7F
1493730072.33,13069,14.31,73874.5,3.83,2.43,2.47,0,*7C
1493730073.53,13070,14.31,73874.5,3.81,2.61,2.55,0,*75
1493730074.71,13071,14.31,73868.0,3.81,2.61,2.61,0,*73
1493730075.94,13072,14.31,73872.5,3.81,2.85,2.81,0,*74
1493730077.11,13073,14.31,73874.0,3.81,2.95,2.95,0,*71
1493730078.37,13074,14.31,73868.8,3.79,3.03,3.03,0,*71
1493730079.6,13075,14.31,73872.8,3.81,3.11,3.07,0,*70
1493730080.82,13076,14.31,73872.8,3.81,3.23,3.23,0,*74
1493730082.08,13077,14.31,73878.8,3.79,3.11,3.11,0,*72
1493730083.34,13078,14.31,73874.0,3.79,3.07,3.07,0,*7D
1493730084.54,13079,14.31,73874.5,3.79,2.91,2.95,0,*78
1493730085.74,13080,14.31,73874.8,3.79,2.95,2.99,0,*76
1493730087.0,13081,14.31,73876.0,3.79,2.81,2.81,0,*7B
1493730088.22,13082,14.31,73868.8,3.75,2.35,2.43,0,*75
1493730089.45,13083,14.31,73872.3,3.77,2.47,2.59,0,*78
1493730090.7,13084,14.31,73872.0,3.75,2.59,2.55,0,*7E
1493730091.91,13085,14.31,73874.3,3.75,2.65,2.65,0,*73
1493730093.1,13086,14.31,73872.8,3.75,2.99,2.99,0,*70
1493730094.36,13087,14.31,73876.0,3.75,2.81,2.81,0,*71
1493730095.61,13088,14.31,73876.3,3.75,2.81,2.77,0,*77
1493730096.79,13089,14.31,73874.5,3.73,2.91,2.99,0,*71
1493730097.99,13090,14.31,73878.8,3.71,2.95,2.99,0,*7F
1493730099.22,13091,14.31,73874.5,3.71,3.25,3.23,0,*74
1493730100.47,13092,14.31,73876.3,3.71,3.11,3.03,0,*72
1493730101.72,13093,14.31,73876.8,3.71,2.73,2.73,0,*70
1493730102.95,13094,14.31,73878.3,3.71,3.03,2.99,0,*75
1493730104.2,13095,14.31,73874.3,3.71,2.89,2.89,0,*76
1493730105.46,13096,14.31,73878.5,3.67,2.69,2.69,0,*72
1493730106.67,13097,14.31,73874.3,3.71,2.65,2.61,0,*70
1493730107.93,13098,14.31,73872.5,3.67,2.13,2.17,0,*78
1493730109.18,13099,14.31,73878.0,3.67,2.39,2.39,0,*7D
1493730110.42,13100,14.31,73872.8,3.65,2.47,2.47,0,*7E
1493730111.63,13101,14.31,73874.3,3.65,2.81,2.91,0,*7E
1493730112.86,13102,14.31,73876.0,3.65,2.81,2.85,0,*78
1493730114.1,13103,14.31,73874.5,3.65,3.07,3.07,0,*7D
1493730115.33,13104,14.31,73876.3,3.65,2.69,2.73,0,*71
1493730116.55,13105,14.31,73874.5,3.63,2.55,2.59,0,*71
1493730117.78,13106,14.31,73872.5,3.63,2.59,2.47,0,*71
1493730119.01,13107,14.31,73870.3,3.63,2.55,2.59,0,*73
1493730120.23,13108,14.31,73874.0,3.61,2.81,2.91,0,*73
1493730121.47,13109,14.31,73876.0,3.63,2.81,2.81,0,*71
1493730122.72,13110,14.31,73876.0,3.61,2.81,2.81,0,*7B
1493730123.92,13111,14.31,73880.3,3.61,2.95,2.95,0,*7A
1493730125.18,13112,14.31,73878.5,3.61,3.07,3.03,0,*7D
1493730126.43,13113,14.31,73874.5,3.61,2.69,2.69,0,*78
1493730127.68,13114,14.31,73870.3,3.61,2.77,2.77,0,*7F
1493730128.93,13115,14.31,73872.5,3.61,2.89,2.89,0,*7E
1493730130.1,13116,14.31,73876.0,3.63,2.95,2.95,0,*7F
1493730131.37,13117,14.31,73880.3,3.61,3.15,3.15,0,*7C
1493730132.57,13118,14.31,73880.3,3.61,2.91,2.91,0,*73
1493730133.77,13119,14.31,73880.3,3.61,2.91,2.91,0,*72
1493730134.97,13120,14.31,73878.8,3.59,2.89,2.91,0,*7A
1493730136.2,13121,14.31,73882.0,3.59,2.89,2.89,0,*72
1493730137.38,13122,14.31,73880.8,3.59,2.91,2.99,0,*79
1493730138.57,13123,14.31,73884.8,3.59,2.89,2.91,0,*79
1493730139.77,13124,14.31,73880.0,3.59,2.89,2.91,0,*7E
1493730140.98,13125,14.31,73874.0,3.61,2.91,2.91,0,*7D
1493730142.2,13126,14.31,73876.3,3.59,2.85,2.89,0,*79
1493730143.45,13127,14.31,73886.0,3.57,2.73,2.69,0,*71
1493730144.65,13128,14.31,73886.8,3.59,2.61,2.69,0,*73
1493730145.84,13129,14.31,73884.5,3.59,2.65,2.61,0,*7E
1493730147.1,13130,14.31,73880.8,3.57,2.81,2.81,0,*7C
1493730148.36,13131,14.31,73882.8,3.57,2.89,2.85,0,*71
1493730149.61,13132,14.31,73878.0,3.57,2.69,2.69,0,*7E
1493730150.84,13133,14.31,73880.3,3.55,2.47,2.39,0,*74
1493730152.07,13134,14.31,73878.8,3.53,2.35,2.43,0,*7D
1493730153.33,13135,14.31,73884.0,3.53,2.55,2.55,0,*7D
1493730154.59,13136,14.31,73882.8,3.53,2.47,2.47,0,*7E
1493730155.79,13137,14.31,73878.8,3.53,2.35,2.31,0,*7B
1493730157.04,13138,14.31,73880.3,3.53,2.77,2.77,0,*70
1493730158.3,13139,14.31,73882.3,3.53,2.77,2.85,0,*7C
1493730159.56,13140,14.31,73882.0,3.53,3.03,3.03,0,*7F
1493730160.74,13141,14.31,73882.8,3.55,2.95,2.99,0,*74
1493730161.99,13142,14.31,73880.3,3.53,2.81,2.85,0,*79
1493730163.22,13143,14.31,73880.3,3.53,2.85,2.91,0,*79
1493730164.46,13144,14.31,73878.0,3.51,2.81,2.81,0,*79
1493730165.67,13145,14.31,73880.3,3.51,2.59,2.65,0,*77
1493730166.88,13146,14.31,73884.0,3.51,2.65,2.77,0,*78
1493730168.11,13147,14.31,73876.3,3.51,2.77,2.77,0,*7A
1493730169.37,13148,14.31,73872.0,3.49,2.81,2.81,0,*7C
1493730170.58,13149,14.31,73874.5,3.49,2.99,2.99,0,*7D
1493730171.76,13150,14.31,73868.5,3.51,2.95,2.95,0,*7C
1493730173.0,13151,14.31,73866.3,3.51,3.07,3.03,0,*79
1493730174.26,13152,14.31,73868.0,3.49,2.77,2.77,0,*77
1493730175.49,13153,14.31,73870.3,3.51,2.77,2.81,0,*76
1493730176.74,13154,14.31,73872.0,3.49,2.77,2.77,0,*71
1493730177.95,13155,14.31,73878.8,3.51,2.65,2.69,0,*75
1493730179.16,13156,14.31,73878.8,3.51,2.35,2.47,0,*7F
1493730180.38,13157,14.31,73882.8,3.51,2.21,2.21,0,*7B
1493730181.63,13158,14.31,73880.5,3.49,2.73,2.73,0,*7D
1493730182.9,13159,14.31,73880.5,3.49,3.03,3.15,0,*7B
1493730184.16,13160,14.31,73876.5,3.49,3.11,3.11,0,*76
1493730185.41,13161,14.31,73878.3,3.49,2.89,2.89,0,*77
1493730186.67,13162,14.31,73882.0,3.49,2.77,2.77,0,*74
1493730187.93,13163,14.31,73876.3,3.49,2.81,2.77,0,*7C
1493730189.14,13164,14.31,73878.8,3.49,2.91,2.91,0,*72
1493730190.38,13165,14.31,73874.8,3.49,3.15,3.25,0,*70
1493730191.62,13166,14.31,73878.0,3.49,2.65,2.73,0,*77
1493730192.87,13167,14.31,73876.0,3.49,2.05,2.05,0,*71
1493730194.1,13168,14.31,73876.5,3.45,1.67,1.79,0,*7D
1493730195.34,13169,14.31,73874.0,3.43,1.33,1.33,0,*75
1493730196.59,13170,14.31,73872.3,3.41,1.51,1.51,0,*7F
1493730197.81,13171,14.31,73878.8,3.39,1.89,1.89,0,*71
1493730199.04,13172,14.31,73878.8,3.39,2.01,2.01,0,*72
1493730200.22,13173,14.31,73874.5,3.39,1.75,1.83,0,*7A
1493730201.48,13174,14.31,73870.0,3.37,1.97,2.05,0,*72
1493730202.68,13175,14.31,73864.0,3.37,2.27,2.27,0,*7B
1493730203.93,13176,14.31,73864.8,3.37,2.55,2.55,0,*78
1493730205.11,13177,14.31,73862.8,3.35,2.31,2.31,0,*7B
1493730206.29,13178,14.31,73864.3,3.35,2.27,2.27,0,*74
1493730207.47,13179,14.31,73860.8,3.35,2.61,2.61,0,*75
1493730208.73,13180,14.31,73860.0,3.37,2.81,2.89,0,*79
1493730209.97,13181,14.31,73860.0,3.37,2.65,2.69,0,*7C
1493730211.2,13182,14.31,73858.0,3.35,2.77,2.77,0,*71
1493730212.4,13183,14.31,73858.3,3.37,2.91,2.91,0,*72
1493730213.66,13184,14.31,73860.5,3.37,3.15,3.23,0,*70
1493730214.88,13185,14.31,73862.8,3.39,2.85,2.85,0,*7A
1493730216.13,13186,14.31,73864.8,3.37,2.21,2.21,0,*77
1493730217.39,13187,14.31,73864.0,3.37,2.05,2.17,0,*75
1493730218.62,13188,14.31,73870.3,3.35,2.51,2.51,0,*7B
1493730219.88,13189,14.31,73866.8,3.37,2.43,2.39,0,*75
1493730221.13,13190,14.31,73868.5,3.37,2.55,2.55,0,*70
1493730222.4,13191,14.31,73868.8,3.37,2.43,2.51,0,*72
1493730223.66,13192,14.31,73870.3,3.37,2.51,2.51,0,*72
1493730224.85,13193,14.31,73868.8,3.35,2.61,2.61,0,*71
1493730226.08,13194,14.31,73868.8,3.35,2.77,2.77,0,*76
1493730227.26,13195,14.31,73866.8,3.35,2.65,2.65,0,*77
1493730228.47,13196,14.31,73870.5,3.35,2.65,2.69,0,*78
1493730229.7,13197,14.31,73870.5,3.35,2.69,2.69,0,*75
1493730230.93,13198,14.31,73872.3,3.35,3.03,3.03,0,*7A
1493730232.17,13199,14.31,73874.0,3.35,2.89,2.89,0,*7B
1493730233.39,13200,14.31,73876.0,3.39,2.81,2.85,0,*70
1493730234.62,13201,14.31,73872.5,3.35,2.69,2.77,0,*76
1493730235.86,13202,14.31,73872.8,3.35,2.51,2.51,0,*7A
1493730237.1,13203,14.31,73874.0,3.35,2.89,2.81,0,*73
1493730238.28,13204,14.31,73874.0,3.35,3.25,3.25,0,*7C
1493730239.51,13205,14.31,73878.0,3.35,3.33,3.33,0,*7D
1493730240.72,13206,14.31,73872.5,3.37,3.25,3.25,0,*7C
1493730241.93,13207,14.31,73870.0,3.35,3.11,3.25,0,*78
1493730243.18,13208,14.31,73868.5,3.37,3.49,3.49,0,*72
1493730244.44,13209,14.31,73870.8,3.37,3.37,3.41,0,*72
1493730245.64,13210,14.31,73870.8,3.39,3.37,3.29,0,*7A
1493730246.91,13211,14.31,73870.3,3.41,3.45,3.45,0,*7B
1493730248.17,13212,14.31,73868.5,3.41,3.41,3.37,0,*79
1493730249.38,13213,14.31,73872.3,3.41,3.25,3.29,0,*75
1493730250.61,13214,14.31,73868.8,3.41,3.19,3.25,0,*71
1493730251.87,13215,14.31,73868.5,3.41,3.03,3.03,0,*7F
1493730253.08,13216,14.31,73868.5,3.43,3.29,3.33,0,*75
1493730254.28,13217,14.31,73870.0,3.43,3.29,3.33,0,*74
1493730255.46,13218,14.31,73868.8,3.43,2.99,2.99,0,*70
1493730256.66,13219,14.31,73868.3,3.43,2.89,2.99,0,*70
1493730257.9,13220,14.31,73864.3,3.41,2.95,3.03,0,*77
1493730259.13,13221,14.31,73874.8,3.43,3.23,3.33,0,*7B
1493730260.36,13222,14.31,73874.0,3.43,3.07,3.19,0,*76
1493730261.58,13223,14.31,73874.5,3.45,3.49,3.55,0,*73
1493730262.78,13224,14.31,73876.3,3.45,3.55,3.55,0,*79
1493730264.04,13225,14.31,73874.5,3.45,3.67,3.67,0,*78
1493730265.26,13226,14.31,73880.3,3.45,3.59,3.67,0,*76
1493730266.52,13227,14.31,73878.5,3.45,3.71,3.71,0,*7A
1493730267.75,13228,14.31,73880.0,3.49,3.97,4.07,0,*77
1493730268.93,13229,14.31,73878.3,3.51,4.19,4.23,0,*78
1493730270.12,13230,14.31,73880.0,3.51,4.33,4.33,0,*79
1493730271.36,13231,14.31,73878.8,3.53,3.75,3.85,0,*75
1493730272.56,13232,14.31,73874.3,3.53,3.85,3.85,0,*79
1493730273.8,13233,14.31,73878.3,3.53,3.79,3.89,0,*77
1493730274.98,13234,14.31,73878.0,3.55,4.11,4.15,0,*7D
1493730276.16,13235,14.31,73876.8,3.55,3.81,3.89,0,*70
1493730277.4,13236,14.31,73876.8,3.55,3.67,3.67,0,*7B
1493730278.63,13237,14.31,73872.5,3.59,3.71,3.71,0,*76
1493730279.86,13238,14.31,73878.5,3.57,3.59,3.67,0,*7A
1493730281.06,13239,14.31,73878.5,3.59,3.93,4.01,0,*74
1493730282.26,13240,14.31,73872.0,3.59,3.75,3.85,0,*79
1493730283.43,13241,14.31,73874.5,3.59,3.55,3.59,0,*7B
1493730284.61,13242,14.31,73876.8,3.59,3.63,3.63,0,*74
1493730285.78,13243,14.31,73878.5,3.59,3.63,3.63,0,*75
1493730286.95,13244,14.31,73876.0,3.59,3.55,3.55,0,*72
1493730288.16,13245,14.31,73872.3,3.57,3.29,3.29,0,*7D
1493730289.38,13246,14.31,73870.5,3.61,3.63,3.67,0,*7F
1493730290.64,13247,14.31,73874.3,3.61,3.79,3.79,0,*7A
1493730291.87,13248,14.31,73868.3,3.59,3.45,3.49,0,*72
1493730293.08,13249,14.31,73866.8,3.63,3.53,3.53,0,*76
1493730294.34,13250,14.31,73864.0,3.61,3.67,3.79,0,*73
1493730295.59,13251,14.31,73862.3,3.61,3.67,3.67,0,*7D
1493730296.79,13252,14.31,73866.0,3.61,3.59,3.59,0,*7E
1493730298.05,13253,14.31,73864.3,3.61,3.15,3.15,0,*7F
1493730299.25,13254,14.31,73860.8,3.61,2.95,2.95,0,*78
1493730300.49,13255,14.31,73864.5,3.61,3.53,3.53,0,*79
1493730301.75,13256,14.31,73870.3,3.61,3.75,3.75,0,*7A
1493730302.98,13257,14.31,73870.8,3.63,3.67,3.67,0,*79
1493730304.22,13258,14.31,73868.0,3.63,3.67,3.79,0,*79
1493730305.47,13259,14.31,73868.8,3.61,3.41,3.49,0,*7D
1493730306.68,13260,14.31,73868.8,3.63,2.95,3.03,0,*73
1493730307.92,13261,14.31,73874.8,3.61,3.19,3.19,0,*7E
1493730309.14,13262,14.31,73870.0,3.61,3.63,3.67,0,*79
1493730310.35,13263,14.31,73872.0,3.63,3.89,3.97,0,*71
1493730311.58,13264,14.31,73872.5,3.63,3.75,3.75,0,*79
1493730312.78,13265,14.31,73874.3,3.63,3.25,3.19,0,*77
1493730314.01,13266,14.31,73870.8,3.63,3.03,3.03,0,*7B
1493730315.25,13267,14.31,73870.8,3.63,3.15,3.15,0,*7A
1493730316.49,13268,14.31,73872.8,3.61,3.49,3.53,0,*7C
1493730317.66,13269,14.31,73870.3,3.63,3.59,3.59,0,*74
1493730318.89,13270,14.31,73874.8,3.65,3.45,3.53,0,*7D
1493730320.1,13271,14.31,73870.3,3.63,3.89,4.01,0,*7A
1493730321.3,13272,14.31,73870.0,3.63,3.79,3.89,0,*71
1493730322.51,13273,14.31,73862.5,3.65,4.05,4.15,0,*78
1493730323.77,13274,14.31,73868.0,3.71,4.05,4.05,0,*7B
1493730325.03,13275,14.31,73868.0,3.67,4.01,4.05,0,*79
1493730326.24,13276,14.31,73868.8,3.67,4.33,4.33,0,*7E
1493730327.45,13277,14.31,73870.0,3.67,4.37,4.41,0,*7E
1493730328.66,13278,14.31,73872.3,3.67,4.23,4.23,0,*70
1493730329.9,13279,14.38,73876.8,3.71,3.97,3.97,0,*76
1493730331.1,13280,14.31,73874.5,3.71,3.85,3.85,0,*70
1493730332.3,13281,14.31,73872.3,3.73,4.01,4.11,0,*72
1493730333.51,13282,14.31,73870.8,3.71,4.07,4.15,0,*71
1493730334.7,13283,14.31,73878.0,3.75,4.19,4.19,0,*77
1493730335.88,13284,14.31,73880.3,3.73,3.85,3.89,0,*7A
1493730337.08,13285,14.31,73874.0,3.73,3.85,3.97,0,*74
1493730338.28,13286,14.31,73872.8,3.75,3.85,3.85,0,*72
1493730339.52,13287,14.31,73874.3,3.75,3.53,3.37,0,*71
1493730340.77,13288,14.31,73878.5,3.75,3.37,3.49,0,*75
1493730341.97,13289,14.31,73876.0,3.75,3.63,3.63,0,*7D
1493730343.21,13290,14.31,73870.0,3.75,3.97,4.01,0,*7D
1493730344.42,13291,14.31,73870.0,3.75,4.33,4.45,0,*75
1493730345.6,13292,14.31,73872.3,3.77,4.33,4.37,0,*71
1493730346.79,13293,14.31,73876.0,3.77,4.49,4.59,0,*75
1493730348.02,13294,14.31,73880.8,3.77,4.93,5.05,0,*7D
1493730349.22,13295,14.31,73880.3,3.79,5.15,5.15,0,*7C
1493730350.41,13296,14.31,73876.3,3.81,5.19,5.19,0,*78
1493730351.61,13297,14.31,73864.3,3.83,4.41,4.45,0,*7F
1493730352.84,13298,14.31,73864.0,3.81,4.31,4.31,0,*76
1493730354.06,13299,14.31,73864.5,3.83,4.79,4.81,0,*72
1493730355.27,13300,14.31,73870.3,3.85,5.01,5.11,0,*73
1493730356.51,13301,14.31,73868.0,3.85,4.93,5.01,0,*79
1493730357.69,13302,14.31,73870.0,3.89,3.89,3.89,0,*7C
1493730358.88,13303,14.31,73870.0,3.87,3.55,3.63,0,*76
1493730360.14,13304,14.31,73870.3,3.87,3.79,3.79,0,*74
1493730361.34,13305,14.31,73876.0,3.89,4.11,4.05,0,*7E
1493730362.55,13306,14.31,73878.0,3.87,4.37,4.37,0,*76
1493730363.76,13307,14.31,73878.3,3.87,4.27,4.33,0,*72
1493730364.98,13308,14.31,73872.0,3.87,4.01,3.93,0,*74
1493730366.19,13309,14.31,73874.3,3.87,3.89,3.93,0,*72
1493730367.37,13310,14.31,73874.8,3.89,3.89,3.93,0,*74
1493730368.58,13311,14.31,73874.3,3.89,3.93,4.01,0,*72
1493730369.75,13312,14.31,73876.5,3.89,4.15,4.23,0,*78
1493730370.94,13313,14.31,73878.8,3.89,3.93,3.93,0,*7C
1493730372.12,13314,14.31,73874.0,3.89,4.27,4.37,0,*7A
1493730373.32,13315,14.31,73872.8,3.89,4.57,4.59,0,*74
1493730374.51,13316,14.31,73870.5,3.89,4.33,4.45,0,*78
1493730375.68,13317,14.31,73874.0,3.89,4.49,4.57,0,*77
1493730376.87,13318,14.31,73868.0,3.93,4.49,4.59,0,*7D
1493730378.1,13319,14.31,73866.0,3.95,4.19,4.31,0,*71
1493730379.27,13320,14.31,73868.0,3.93,4.15,4.19,0,*7B
1493730380.47,13321,14.31,73866.0,3.97,4.11,4.19,0,*7A
1493730381.67,13322,14.31,73868.3,3.95,4.07,4.11,0,*74
1493730382.84,13323,14.31,73868.0,3.93,4.41,4.45,0,*70
1493730384.07,13324,14.31,73872.5,3.95,4.45,4.63,0,*71
1493730385.27,13325,14.31,73866.3,3.97,4.41,4.45,0,*72
1493730386.48,13326,14.31,73866.3,3.97,4.33,4.45,0,*74
1493730387.73,13327,14.31,73862.0,3.99,4.71,4.71,0,*7A
1493730388.91,13328,14.31,73856.3,3.99,4.23,4.15,0,*70
1493730390.14,13329,14.31,73858.5,3.97,4.01,4.15,0,*7F
1493730391.37,13330,14.31,73856.5,3.97,3.97,4.07,0,*7C
1493730392.62,13331,14.31,73856.0,3.97,3.97,4.01,0,*7B
1493730393.8,13332,14.31,73856.0,3.99,4.15,4.15,0,*7E
1493730395.01,13333,14.31,73862.0,3.97,3.81,3.81,0,*71
1493730396.27,13334,14.31,73858.3,3.97,3.71,3.75,0,*72
1493730397.5,13335,14.31,73864.3,3.97,3.63,3.71,0,*74
1493730398.7,13336,14.31,73862.8,3.97,3.63,3.59,0,*7D
1493730399.94,13337,14.31,73862.3,3.97,3.71,3.81,0,*7A
1493730401.15,13338,14.31,73866.3,3.97,4.11,4.19,0,*72
1493730402.35,13339,14.31,73864.5,3.97,4.41,4.41,0,*7B
1493730403.56,13340,14.31,73870.8,3.97,4.41,4.45,0,*71
1493730404.77,13341,14.38,73876.8,3.97,4.45,4.53,0,*73
1493730406.03,13342,14.31,73872.0,3.97,4.67,4.67,0,*77
1493730407.23,13343,14.31,73868.0,3.97,4.45,4.53,0,*71
1493730408.42,13344,14.31,73874.8,3.99,4.33,4.45,0,*7E
1493730409.64,13345,14.31,73872.5,3.99,3.97,3.97,0,*7E
1493730410.87,13346,14.31,73874.3,3.99,4.01,4.05,0,*79
1493730412.06,13347,14.38,73872.0,3.99,4.11,4.15,0,*78
1493730413.26,13348,14.31,73868.5,3.99,3.63,3.67,0,*77
1493730414.52,13349,14.31,73864.3,3.97,3.37,3.37,0,*7C
1493730415.74,13350,14.38,73868.3,3.97,3.53,3.59,0,*7E
1493730417.01,13351,14.38,73870.3,3.97,3.75,3.75,0,*75
1493730418.27,13352,14.31,73868.8,3.97,3.75,3.71,0,*72
1493730419.5,13353,14.38,73868.3,3.99,4.01,4.05,0,*7D
1493730420.73,13354,14.31,73868.8,3.97,4.57,4.63,0,*77
1493730421.92,13355,14.38,73874.3,3.99,4.57,4.57,0,*7F
1493730423.16,13356,14.31,73870.0,3.97,4.31,4.33,0,*70
1493730424.4,13357,14.31,73872.5,3.97,4.31,4.33,0,*71
1493730425.63,13358,14.31,73872.0,3.97,4.11,4.01,0,*7D
1493730426.86,13359,14.38,73876.8,3.99,4.05,4.05,0,*73
1493730428.12,13360,14.31,73876.0,3.97,4.01,4.01,0,*77
1493730429.3,13361,14.31,73874.5,3.99,4.27,4.27,0,*78
1493730430.48,13362,14.31,73870.8,3.99,4.15,4.23,0,*7E
1493730431.66,13363,14.38,73872.3,3.99,4.11,4.11,0,*7A
1493730432.87,13364,14.31,73862.8,3.97,4.45,4.53,0,*74
1493730434.11,13365,14.31,73868.3,3.99,4.59,4.71,0,*76
1493730435.37,13366,14.31,73868.3,4.01,4.59,4.67,0,*74
1493730436.58,13367,14.38,73866.5,4.01,4.45,4.57,0,*7B
1493730437.79,13368,14.38,73870.3,4.01,4.37,4.37,0,*77
1493730439.03,13369,14.31,73866.5,4.01,3.75,3.85,0,*79
1493730440.24,13370,14.31,73860.8,4.01,3.89,3.89,0,*7E
1493730441.47,13371,14.38,73866.0,4.01,3.89,3.97,0,*70
1493730442.7,13372,14.31,73862.5,4.01,3.89,3.97,0,*73
1493730443.97,13373,14.38,73868.0,4.01,3.45,3.41,0,*79
1493730445.23,13374,14.31,73864.0,4.01,3.75,3.79,0,*76
1493730446.43,13375,14.38,73868.5,3.99,3.79,3.85,0,*7E
1493730447.63,13376,14.38,73866.3,3.99,3.53,3.55,0,*78
1493730448.84,13377,14.38,73866.8,4.01,3.89,3.89,0,*79
1493730450.05,13378,14.31,73866.8,3.99,3.89,3.97,0,*7F
1493730451.31,13379,14.38,73866.5,3.97,3.97,3.97,0,*7F
1493730452.49,13380,14.38,73868.3,3.99,4.23,4.23,0,*77
1493730453.72,13381,14.38,73868.0,3.97,4.57,4.63,0,*7F
1493730454.96,13382,14.31,73870.0,3.99,4.59,4.67,0,*78
1493730456.14,13383,14.31,73870.8,3.99,4.23,4.15,0,*71
1493730457.31,13384,14.31,73866.0,4.03,4.19,4.27,0,*7A
1493730458.51,13385,14.31,73864.0,4.01,4.11,4.11,0,*74
1493730459.72,13386,14.38,73868.0,4.01,4.11,4.11,0,*77
1493730460.92,13387,14.38,73864.3,4.01,3.55,3.55,0,*76
1493730462.14,13388,14.31,73862.3,4.03,3.23,3.19,0,*72
1493730463.38,13389,14.31,73862.5,3.99,3.07,3.19,0,*71
1493730464.62,13390,14.38,73862.0,3.97,3.29,3.41,0,*76
1493730465.79,13391,14.38,73866.0,3.99,3.85,3.85,0,*77
1493730467.01,13392,14.31,73860.0,3.97,3.93,3.93,0,*7A
1493730468.23,13393,14.38,73870.5,3.99,3.97,4.01,0,*7D
1493730469.48,13394,14.38,73864.3,3.99,3.41,3.41,0,*72
1493730470.73,13395,14.31,73864.3,3.97,3.23,3.23,0,*7D
1493730471.96,13396,14.38,73868.3,3.97,3.93,3.97,0,*7A
1493730473.18,13397,14.38,73874.8,3.97,3.93,3.93,0,*7F
1493730474.44,13398,14.38,73874.3,3.97,3.71,3.71,0,*70
1493730475.67,13399,14.31,73870.3,3.97,4.23,4.31,0,*72
1493730476.88,13400,14.38,73872.3,3.97,4.41,4.41,0,*76
1493730478.07,13401,14.38,73872.0,3.99,4.33,4.33,0,*79
1493730479.25,13402,14.38,73872.0,3.99,4.33,4.37,0,*7E
1493730480.46,13403,14.38,73872.0,3.97,4.41,4.33,0,*70
1493730481.65,13404,14.38,73868.5,3.99,4.37,4.45,0,*79
1493730482.86,13405,14.38,73874.5,3.97,4.45,4.53,0,*74
1493730484.04,13406,14.38,73876.8,3.99,4.23,4.23,0,*7E
1493730485.24,13407,14.38,73878.8,3.99,4.45,4.59,0,*72
1493730486.43,13408,14.31,73880.0,3.99,4.33,4.45,0,*71
1493730487.63,13409,14.38,73878.5,4.01,4.37,4.49,0,*7E
1493730488.89,13410,14.38,73880.8,4.01,3.79,3.79,0,*7F
1493730490.15,13411,14.38,73882.0,4.01,3.41,3.33,0,*7B
1493730491.38,13412,14.31,73882.5,4.01,3.55,3.67,0,*7C
1493730492.55,13413,14.38,73878.0,3.99,3.55,3.55,0,*7A
1493730493.73,13414,14.38,73866.3,3.99,3.85,3.85,0,*7D
1493730494.93,13415,14.38,73868.3,3.97,4.07,4.11,0,*75
1493730496.14,13416,14.38,73870.3,3.97,4.45,4.45,0,*71
1493730497.39,13417,14.38,73868.3,4.01,4.01,4.01,0,*78
1493730498.63,13418,14.38,73866.8,3.99,3.41,3.41,0,*71
1493730499.84,13419,14.38,73870.8,3.99,2.81,2.91,0,*71
1493730501.06,13420,14.38,73878.0,3.99,3.19,3.19,0,*7A
1493730502.32,13421,14.38,73878.0,3.97,2.77,2.77,0,*75
1493730503.58,13422,14.31,73872.3,3.97,2.89,2.89,0,*76
1493730504.78,13423,14.38,73878.3,3.93,2.65,2.73,0,*74
1493730505.98,13424,14.38,73874.0,3.93,2.99,3.07,0,*72
1493730507.17,13425,14.38,73876.8,3.95,3.63,3.63,0,*73
1493730508.37,13426,14.38,73878.8,3.95,3.81,3.81,0,*70
1493730509.63,13427,14.38,73880.0,3.95,3.75,3.75,0,*71
1493730510.88,13428,14.38,73880.0,3.95,3.75,3.75,0,*7E
1493730512.06,13429,14.38,73882.8,3.93,3.81,3.81,0,*79
1493730513.31,13430,14.38,73876.0,3.95,3.75,3.75,0,*77
1493730514.51,13431,14.38,73882.3,3.95,3.85,3.81,0,*72
1493730515.73,13432,14.38,73882.0,3.93,3.37,3.37,0,*73
1493730516.95,13433,14.38,73884.0,3.93,3.33,3.37,0,*76
1493730518.13,13434,14.38,73882.0,3.93,3.25,3.25,0,*75
1493730519.35,13435,14.38,73878.3,3.93,3.79,3.67,0,*7B
1493730520.58,13436,14.38,73878.0,3.93,3.67,3.71,0,*70
1493730521.81,13437,14.38,73878.5,3.93,3.67,3.67,0,*76
1493730523.0,13438,14.38,73882.3,3.93,3.45,3.55,0,*78
1493730524.24,13439,14.38,73882.3,3.89,3.41,3.45,0,*77
1493730525.4,13440,14.38,73880.5,3.93,3.55,3.59,0,*7A
1493730526.57,13441,14.38,73886.3,3.93,3.59,3.59,0,*77
1493730527.79,13442,14.38,73886.3,3.93,3.49,3.49,0,*74
1493730529.02,13443,14.38,73882.0,3.93,3.23,3.33,0,*74
1493730530.25,13444,14.38,73884.0,3.89,3.41,3.45,0,*7D
1493730531.49,13445,14.38,73886.3,3.89,3.75,3.79,0,*74
1493730532.69,13446,14.38,73886.3,3.89,3.93,4.05,0,*73